COSMOS 2477 (745)

Last updated on Thu Jul 09 2026 00:03:27 GMT+0000 (Coordinated Universal Time)

1 37868U 11064B 26188.15487328 -.00000020 00000+0 00000+0 0 9998 2 37868 65.2873 72.2772 0019396 237.9015 305.6247 2.13103195114184
UTC large
Height (km)
Speed (km/s)
/
Latitude / Longitude
Inclination (degrees)
Orbital Period (minutes)
Azimuth
Elevation
Range (km)
Doppler Factor

Next 0 passes for location: London (51.5072 / 0.1276)

No passes found over London.
COSMOS 2477 (745)